This is the latest recevied weather packets stored in our database for station/object SM0UQT-10. If no packets are shown the sender has not sent any weather packets the latest 10 day(s).
| Time | Temp. | Humidity | Pressure | Rain* | Wind** | Luminosity | Snow |
|---|---|---|---|---|---|---|---|
| 1777483764 | 25° C | 31% | 1024.8 hPa | - | - | - | - |
| 1777483012 | 25.56° C | 31% | 1024.8 hPa | - | - | - | - |
| 1777482863 | 25.56° C | 31% | 1024.8 hPa | - | - | - | - |
| 1777482625 | 25° C | 30% | 1024.7 hPa | - | - | - | - |
| 1777481963 | 25° C | 30% | 1024.7 hPa | - | - | - | - |
| 1777481136 | 24.44° C | 31% | 1024.8 hPa | - | - | - | - |
| 1777481063 | 24.44° C | 31% | 1024.8 hPa | - | - | - | - |
| 1777480163 | 23.89° C | 30% | 1024.8 hPa | - | - | - | - |
| 1777479773 | 22.78° C | 30% | 1024.9 hPa | - | - | - | - |
| 1777479263 | 22.78° C | 30% | 1024.9 hPa | - | - | - | - |
| 1777478426 | 24.44° C | 29% | 1024.8 hPa | - | - | - | - |
| 1777478362 | 24.44° C | 29% | 1024.8 hPa | - | - | - | - |
| 1777477872 | 24.44° C | 28% | 1024.8 hPa | - | - | - | - |
| 1777477462 | 24.44° C | 28% | 1024.8 hPa | - | - | - | - |
| 1777476561 | 22.78° C | 29% | 1025 hPa | - | - | - | - |
| 1777475839 | 23.89° C | 27% | 1025.2 hPa | - | - | - | - |
| 1777475661 | 23.89° C | 27% | 1025.2 hPa | - | - | - | - |
| 1777474938 | 23.33° C | 27% | 1025.2 hPa | - | - | - | - |
| 1777474760 | 23.33° C | 27% | 1025.2 hPa | - | - | - | - |
| 1777474579 | 22.78° C | 27% | 1025.1 hPa | - | - | - | - |
| 1777474055 | 22.78° C | 26% | 1025 hPa | - | - | - | - |
| 1777473859 | 22.78° C | 27% | 1025.1 hPa | - | - | - | - |
| 1777472959 | 22.78° C | 26% | 1025 hPa | - | - | - | - |
| 1777472203 | 25° C | 26% | 1025.1 hPa | - | - | - | - |
| 1777472059 | 25° C | 26% | 1025.1 hPa | - | - | - | - |
* Rain since midnight (hover to see other rain measurements)
** Current wind speed in m/s (hover to see current wind gust speed)